EW2974 Weather Reports


Display with metric or nautical units.
time (UTC)temp
F
wind
direction
speed
MPH
gust
MPH
rain 1hr
in
rain 24hr
in
rain mn
in
humidity
%
barometer
mb
20260505173404 68 280 2.0 14.0 0.00 0.01 0.01 60 1004.8
20260505172904 68 191 1.0 5.0 0.00 0.01 0.01 62 1004.9
20260505172404 68 244 5.0 12.0 0.00 0.01 0.01 61 1004.9
20260505171904 68 269 2.0 8.0 0.00 0.01 0.01 61 1005.0
20260505171404 69 262 0.0 5.0 0.00 0.01 0.01 61 1005.0
20260505170404 69 215 3.0 25.0 0.00 0.01 0.01 60 1005.0
20260505165904 69 248 7.0 17.0 0.00 0.01 0.01 59 1005.0
20260505165405 69 264 5.0 22.0 0.00 0.01 0.01 59 1004.9
20260505164405 71 185 5.0 14.0 0.00 0.01 0.01 56 1004.8
20260505163904 71 258 7.0 22.0 0.00 0.01 0.01 56 1004.7
20260505163405 72 272 5.0 21.0 0.00 0.01 0.01 55 1004.6
20260505162904 72 206 3.0 21.0 0.00 0.01 0.01 59 1004.5
20260505162404 72 248 1.0 16.0 0.00 0.01 0.01 58 1004.5
20260505161904 71 221 4.0 21.0 0.00 0.01 0.01 58 1004.5
20260505161404 71 282 8.0 17.0 0.00 0.01 0.01 55 1004.3
20260505160404 70 261 9.0 16.0 0.00 0.01 0.01 57 1004.2
20260505152904 68 199 2.0 21.0 0.00 0.01 0.01 61 1004.7
20260505152404 69 225 10.0 22.0 0.00 0.01 0.01 59 1004.8
20260505151904 68 243 8.0 21.0 0.00 0.01 0.01 62 1004.7
20260505150904 67 242 10.0 21.0 0.00 0.01 0.01 62 1004.9
20260505150404 67 276 5.0 16.0 0.00 0.01 0.01 62 1004.8
20260505140404 63 254 4.0 16.0 0.00 0.02 0.01 73 1004.5
20260505124904 61 212 0.0 0.0 0.01 0.02 0.01 75 1004.1
20260505124404 61 217 0.0 12.0 0.01 0.02 0.01 75 1004.0
20260505123904 61 228 1.0 6.0 0.01 0.02 0.01 75 1003.7
20260505122904 62 256 2.0 8.0 0.01 0.02 0.01 73 1004.1
20260505122404 62 259 0.0 1.0 0.01 0.02 0.01 71 1004.1
20260505121904 63 208 0.0 8.0 0.00 0.01 0.00 71 1004.0
20260505121404 63 220 1.0 9.0 0.00 0.01 0.00 71 1004.2
20260505120904 63 243 2.0 9.0 0.00 0.01 0.00 68 1004.3
20260505115904 63 215 2.0 16.0 0.00 0.01 0.00 68 1003.9
20260505115404 63 207 0.0 3.0 0.00 0.01 0.00 67 1003.9
20260505114904 63 226 3.0 8.0 0.00 0.01 0.00 67 1003.9
20260505114404 63 213 1.0 6.0 0.00 0.01 0.00 67 1003.9
20260505113404 63 208 1.0 3.0 0.00 0.01 0.00 67 1003.7
20260505112904 63 248 5.0 8.0 0.00 0.01 0.00 66 1003.7
20260505112404 63 234 2.0 14.0 0.00 0.01 0.00 67 1003.6
20260505111904 63 259 1.0 14.0 0.00 0.01 0.00 67 1003.6
20260505111404 63 258 1.0 12.0 0.00 0.01 0.00 66 1003.6
20260505110904 63 243 1.0 8.0 0.00 0.01 0.00 67 1003.6
20260505101904 63 252 0.0 6.0 0.00 0.01 0.00 65 1002.8
20260505101404 64 264 3.0 13.0 0.00 0.01 0.00 65 1002.6
20260505100904 64 250 2.0 12.0 0.00 0.01 0.00 65 1002.6
20260505100403 64 215 2.0 9.0 0.00 0.01 0.00 64 1002.6
20260505095904 64 212 6.0 17.0 0.00 0.01 0.00 64 1002.6
20260505095403 64 214 1.0 13.0 0.00 0.01 0.00 65 1002.5
20260505094404 64 268 1.0 9.0 0.00 0.01 0.00 65 1002.4
20260505093904 64 224 7.0 9.0 0.00 0.01 0.00 65 1002.3
20260505093404 64 209 6.0 16.0 0.00 0.01 0.00 65 1002.3
20260505092904 64 263 6.0 16.0 0.00 0.01 0.00 66 1002.4
20260505092404 63 248 1.0 9.0 0.00 0.01 0.00 66 1002.3
20260505091904 63 202 5.0 16.0 0.00 0.01 0.00 66 1002.2
20260505091404 63 238 3.0 16.0 0.00 0.01 0.00 67 1002.2
20260505090904 63 261 1.0 5.0 0.00 0.01 0.00 68 1002.2
20260505085904 63 237 0.0 0.0 0.00 0.01 0.00 68 1002.1
20260505085404 63 247 1.0 6.0 0.00 0.01 0.00 69 1002.1
20260505084904 63 224 2.0 16.0 0.00 0.01 0.00 70 1002.1
20260505084404 63 253 3.0 13.0 0.00 0.01 0.00 70 1002.2
20260505083403 64 270 1.0 8.0 0.00 0.01 0.00 67 1002.0
20260505082904 65 249 5.0 14.0 0.00 0.01 0.00 63 1001.9
20260505082404 65 225 5.0 9.0 0.00 0.01 0.00 63 1001.9
20260505081904 65 261 4.0 14.0 0.00 0.01 0.00 63 1001.7
20260505081404 64 219 5.0 8.0 0.00 0.01 0.00 63 1001.8
20260505080904 64 220 0.0 8.0 0.00 0.01 0.00 64 1001.6
20260505080404 64 272 3.0 9.0 0.00 0.01 0.00 64 1001.5
20260505075904 64 234 2.0 9.0 0.00 0.01 0.00 64 1001.5
20260505075404 64 228 2.0 14.0 0.00 0.01 0.00 64 1001.4
20260505074904 64 261 2.0 8.0 0.00 0.01 0.00 64 1001.4
20260505074404 64 208 0.0 5.0 0.00 0.01 0.00 65 1001.4
20260505073904 64 177 0.0 1.0 0.00 0.01 0.00 65 1001.4
20260505073404 64 282 1.0 8.0 0.00 0.01 0.00 64 1001.3
20260505072903 64 239 1.0 9.0 0.00 0.01 0.00 64 1001.4
20260505072404 64 219 1.0 9.0 0.00 0.01 0.00 65 1001.4
20260505071904 64 267 0.0 6.0 0.00 0.01 0.00 65 1001.5
20260505071404 64 225 1.0 12.0 0.00 0.01 0.00 65 1001.4
20260505070904 64 214 0.0 1.0 0.00 0.01 0.00 65 1001.4
20260505070404 64 212 2.0 8.0 0.00 0.01 0.00 65 1001.4
20260505065904 64 260 1.0 9.0 0.00 0.01 0.00 65 1001.4
20260505065404 64 251 1.0 6.0 0.00 0.01 0.00 66 1001.4
20260505064903 64 230 0.0 6.0 0.00 0.01 0.00 65 1001.5
20260505064404 64 230 1.0 6.0 0.00 0.01 0.00 65 1001.5
20260505063904 64 257 0.0 8.0 0.00 0.01 0.00 65 1001.6
20260505063403 64 226 1.0 6.0 0.00 0.01 0.00 65 1001.6
20260505062904 64 251 0.0 6.0 0.00 0.01 0.00 65 1001.6
20260505062404 64 276 0.0 1.0 0.00 0.01 0.00 65 1001.7
20260505061904 64 269 1.0 6.0 0.00 0.01 0.00 65 1001.8
20260505061404 64 249 0.0 8.0 0.00 0.01 0.00 65 1001.8
20260505060904 64 267 0.0 5.0 0.00 0.01 0.00 64 1001.9
20260505055404 64 274 1.0 6.0 0.00 0.01 0.00 64 1002.2
20260505054903 64 159 2.0 8.0 0.00 0.01 0.00 65 1002.3
20260505053904 64 237 0.0 9.0 0.00 0.01 0.00 65 1002.4
20260505053404 64 262 2.0 6.0 0.00 0.01 0.00 65 1002.4
20260505052405 64 261 1.0 6.0 0.00 0.01 0.00 66 1002.4
20260505051905 64 186 1.0 6.0 0.00 0.01 0.00 66 1002.5
20260505051405 64 152 0.0 3.0 0.00 0.01 0.00 67 1002.5
20260505050905 64 240 0.0 5.0 0.00 0.01 0.00 67 1002.6
20260505050405 64 240 2.0 8.0 0.00 0.01 0.00 67 1002.6
20260505041405 63 213 2.0 8.0 0.00 0.01 0.00 65 1002.9
20260505040905 63 256 0.0 0.0 0.00 0.01 0.00 65 1002.9
20260505035905 64 209 0.0 6.0 0.00 0.01 0.01 65 1003.0
20260505035405 64 267 0.0 0.0 0.00 0.01 0.01 64 1003.1
20260505034905 64 208 0.0 1.0 0.00 0.01 0.01 64 1003.1
20260505034405 64 286 0.0 5.0 0.00 0.01 0.01 64 1003.1
20260505033905 64 258 0.0 0.0 0.00 0.01 0.01 65 1003.1
20260505033405 64 271 0.0 3.0 0.00 0.01 0.01 63 1003.1
20260505032905 64 248 0.0 0.0 0.00 0.01 0.01 63 1003.1
20260505031905 64 178 0.0 9.0 0.00 0.01 0.01 63 1003.1
20260505031405 64 242 0.0 1.0 0.00 0.01 0.01 62 1003.0
20260505030905 64 221 0.0 0.0 0.00 0.01 0.01 63 1003.0
20260505025905 64 223 0.0 0.0 0.00 0.01 0.01 62 1003.3
20260505025405 64 230 0.0 1.0 0.00 0.01 0.01 62 1003.2
20260505024904 64 244 0.0 1.0 0.00 0.01 0.01 62 1003.3
20260505023405 65 270 0.0 5.0 0.00 0.01 0.01 60 1003.5
20260505022905 65 223 1.0 8.0 0.00 0.01 0.01 60 1003.5
20260505022404 65 219 1.0 6.0 0.00 0.01 0.01 60 1003.5
20260505021904 65 218 1.0 6.0 0.00 0.01 0.01 60 1003.5
20260505020904 66 264 1.0 6.0 0.00 0.01 0.01 59 1003.5
20260505020405 66 238 1.0 9.0 0.00 0.01 0.01 58 1003.5
20260505015406 66 241 1.0 6.0 0.00 0.01 0.01 58 1003.6
20260505014905 67 257 1.0 16.0 0.00 0.01 0.01 57 1003.6
20260505013905 67 252 4.0 12.0 0.00 0.01 0.01 57 1003.5
20260505012904 67 225 3.0 14.0 0.00 0.01 0.01 56 1003.4
20260505012404 67 222 0.0 6.0 0.00 0.01 0.01 56 1003.2
20260505011405 67 182 0.0 6.0 0.00 0.01 0.01 56 1003.0
20260505010406 68 246 2.0 12.0 0.00 0.01 0.01 55 1002.9
20260505005404 68 274 1.0 6.0 0.00 0.01 0.01 55 1002.8
20260505004904 68 196 5.0 16.0 0.00 0.01 0.01 55 1002.7
20260505004405 68 249 1.0 6.0 0.00 0.01 0.01 55 1002.8
20260505003404 68 206 0.0 5.0 0.00 0.01 0.01 55 1002.5
20260505002905 69 263 0.0 0.0 0.00 0.01 0.01 55 1002.5
20260505001904 69 249 1.0 9.0 0.00 0.01 0.01 54 1002.4
20260505000905 69 255 0.0 3.0 0.00 0.01 0.01 53 1002.3
20260505000405 70 191 0.0 6.0 0.00 0.01 0.01 53 1002.2
20260504235404 70 242 7.0 17.0 0.00 0.01 0.01 53 1002.2
20260504234905 70 167 4.0 16.0 0.00 0.01 0.01 53 1002.1
20260504234405 70 209 2.0 9.0 0.00 0.01 0.01 52 1002.1
20260504233905 71 237 2.0 9.0 0.00 0.01 0.01 52 1002.0
20260504232405 71 257 1.0 3.0 0.00 0.01 0.01 52 1002.0
20260504231904 71 241 2.0 14.0 0.00 0.01 0.01 52 1001.9
20260504231405 72 249 3.0 18.0 0.00 0.01 0.01 51 1002.0
20260504230905 71 237 3.0 23.0 0.00 0.01 0.01 51 1002.0
20260504230405 71 238 3.0 23.0 0.00 0.01 0.01 52 1002.3
20260504225904 71 211 7.0 18.0 0.00 0.01 0.01 51 1002.4
20260504224904 72 198 2.0 17.0 0.00 0.01 0.01 52 1002.4
20260504224404 72 160 0.0 16.0 0.00 0.01 0.01 52 1002.5
20260504223905 72 268 0.0 14.0 0.00 0.01 0.01 52 1002.5
20260504223405 72 264 1.0 8.0 0.00 0.01 0.01 51 1002.6
20260504222904 72 224 4.0 17.0 0.00 0.01 0.01 51 1002.8
20260504222404 72 255 1.0 14.0 0.00 0.01 0.01 51 1002.8
20260504221905 71 264 5.0 14.0 0.00 0.01 0.01 51 1002.8
20260504221404 71 237 6.0 23.0 0.00 0.01 0.01 52 1002.9
20260504220905 71 250 5.0 16.0 0.00 0.01 0.01 51 1002.9
20260504215905 73 268 1.0 18.0 0.00 0.01 0.01 50 1002.9
20260504215405 73 149 1.0 6.0 0.00 0.01 0.01 49 1002.8
20260504214905 73 189 3.0 14.0 0.00 0.01 0.01 48 1002.7
20260504214405 73 195 3.0 17.0 0.00 0.01 0.01 49 1002.7
20260504213906 72 252 6.0 13.0 0.00 0.01 0.01 50 1002.9
20260504213405 73 254 6.0 9.0 0.00 0.01 0.01 47 1003.0
20260504212404 73 218 0.0 5.0 0.00 0.01 0.01 50 1003.0
20260504211405 72 236 4.0 14.0 0.00 0.01 0.01 47 1003.1
20260504210905 73 217 3.0 14.0 0.00 0.01 0.01 47 1003.0
20260504205404 74 218 8.0 14.0 0.00 0.01 0.01 45 1003.1
20260504204905 74 268 3.0 14.0 0.00 0.01 0.01 45 1003.0
20260504204405 74 263 5.0 9.0 0.00 0.01 0.01 46 1003.1
20260504203905 73 252 3.0 12.0 0.00 0.01 0.01 46 1003.0
20260504203404 74 205 1.0 14.0 0.00 0.01 0.01 44 1002.9
20260504202905 74 232 7.0 17.0 0.00 0.01 0.01 45 1003.0
20260504202405 74 237 3.0 16.0 0.00 0.01 0.01 45 1003.0
20260504201905 74 242 3.0 17.0 0.00 0.01 0.01 42 1003.1
20260504201404 74 214 2.0 12.0 0.00 0.01 0.01 43 1003.1
20260504200405 74 224 5.0 17.0 0.00 0.01 0.01 44 1003.2
20260504195905 74 267 2.0 12.0 0.00 0.01 0.01 46 1003.3
20260504194905 74 188 4.0 16.0 0.00 0.01 0.01 44 1003.3
20260504194405 74 268 6.0 18.0 0.00 0.01 0.01 43 1003.6
20260504193405 74 213 0.0 9.0 0.00 0.01 0.01 46 1003.7
20260504192904 74 275 6.0 14.0 0.00 0.01 0.01 45 1003.8
20260504192404 73 231 5.0 12.0 0.00 0.01 0.01 47 1003.9
20260504191404 73 213 7.0 22.0 0.00 0.01 0.01 46 1004.0
20260504190905 74 242 1.0 14.0 0.00 0.01 0.01 46 1004.0
20260504185905 74 215 4.0 25.0 0.00 0.01 0.01 44 1004.1
20260504185405 75 176 1.0 14.0 0.00 0.01 0.01 46 1004.0
20260504184904 74 221 2.0 16.0 0.00 0.01 0.01 45 1004.1
20260504184405 74 190 3.0 21.0 0.00 0.01 0.01 44 1004.2
20260504183904 74 216 5.0 14.0 0.00 0.01 0.01 46 1004.4
20260504183404 74 237 1.0 14.0 0.00 0.01 0.01 46 1004.4
20260504182904 74 192 7.0 14.0 0.00 0.01 0.01 44 1004.4
20260504182404 73 225 4.0 18.0 0.00 0.01 0.01 43 1004.5
20260504181904 73 187 5.0 17.0 0.00 0.01 0.01 45 1004.7
20260504181405 73 223 6.0 16.0 0.00 0.01 0.01 44 1004.7
20260504180904 73 263 6.0 12.0 0.00 0.01 0.01 45 1004.7
20260504180405 73 223 4.0 22.0 0.00 0.01 0.01 43 1004.8
20260504175904 73 267 3.0 22.0 0.00 0.01 0.01 46 1004.8
20260504174904 73 242 3.0 13.0 0.00 0.01 0.01 46 1004.9
20260504173904 73 250 2.0 17.0 0.00 0.01 0.01 46 1005.0